Вернуться в каталог

STARLINK-31263

АктивенСвязьVLEO
NORAD 58832·PAYLOAD·🇺🇸 United States

Запущен Jan 24, 2024 с Vandenberg Space Force Base

Loading…

Ближайшие Пролёты (ближайшие 24 часа)

TLE

СвежийSource: CelesTrak SupGP

Эпоха: Sep 14, 2026, 22:20 UTC

1 58832C 24017G   26257.93104167  .00017379  00000+0  51379-3 0  2574
2 58832  53.1586  31.4889 0001164  78.9889 317.6946 15.34362647    18

Отслеживайте STARLINK-31263 в реальном времени с AllMySat

Download on the App Store